QPF
0.01 0.01 0.01 0.01 0.02 0.01 0.00 0.00 0.00 0.01 0.50 1.03 0.44 0.04 0.00 0.00 0.00 0.00 0.00 0.00 0.00 0.00 0.00 0.00 0.00 0.00 0.00 0.00 0.00 0.00 0.00 0.00 0.00 0.00 0.00 0.00 0.00 0.00 0.00 0.00 0.00 0.00 0.00 0.00
0.00 0.01 0.01 0.02 0.03 0.01 0.00 0.00 0.00 0.03 0.58 0.93 0.28 0.03 0.01 0.00 0.00 0.00 0.00 0.00 0.00 0.00 0.00 0.00 0.00 0.00 0.00 0.00 0.00 0.00 0.00 0.00 0.00 0.00 0.00 0.00 0.00 0.00 0.00 0.00 0.00 0.00 0.00 0.00
0.00 0.00 0.01 0.02 0.03 0.00 0.00 0.00 0.00 0.02 0.34 0.53 0.11 0.04 0.01 0.00 0.00 0.00 0.00 0.00 0.00 0.00 0.00 0.00 0.00 0.00 0.00 0.00 0.00 0.00 0.00 0.00 0.00 0.00 0.00 0.00 0.00 0.00 0.00 0.00 0.00 0.00 0.00 0.00
0.00 0.00 0.01 0.02 0.02 0.00 0.00 0.00 0.00 0.02 0.13 0.26 0.14 0.06 0.01 0.00 0.00 0.00 0.00 0.00 0.00 0.00 0.00 0.00 0.00 0.00 0.00 0.00 0.00 0.00 0.00 0.00 0.00 0.00 0.00 0.00 0.00 0.00 0.00 0.00 0.00 0.00 0.00 0.00
0.01 0.00 0.01 0.02 0.02 0.01 0.00 0.00 0.00 0.01 0.02 0.05 0.08 0.17 0.08 0.00 0.00 0.00 0.00 0.00 0.00 0.00 0.00 0.00 0.00 0.00 0.00 0.00 0.00 0.00 0.00 0.00 0.00 0.00 0.00 0.00 0.00 0.00 0.00 0.00 0.00 0.00 0.00 0.00
0.01 0.00 0.00 0.02 0.01 0.01 0.00 0.00 0.00 0.00 0.00 0.01 0.08 0.13 0.04 0.00 0.00 0.00 0.00 0.00 0.00 0.00 0.00 0.00 0.00 0.00 0.00 0.00 0.00 0.00 0.00 0.00 0.00 0.00 0.00 0.00 0.00 0.00 0.00 0.00 0.00 0.00 0.00 0.00
0.01 0.00 0.00 0.01 0.01 0.00 0.00 0.00 0.00 0.00 0.00 0.01 0.02 0.02 0.01 0.00 0.00 0.00 0.00 0.00 0.00 0.00 0.00 0.00 0.00 0.00 0.00 0.00 0.00 0.00 0.00 0.00 0.00 0.00 0.00 0.00 0.00 0.00 0.00 0.00 0.00 0.00 0.00 0.00
0.01 0.00 0.00 0.02 0.01 0.00 0.00 0.00 0.00 0.00 0.00 0.00 0.01 0.00 0.00 0.00 0.00 0.00 0.00 0.00 0.00 0.00 0.00 0.00 0.00 0.00 0.00 0.00 0.00 0.00 0.00 0.00 0.00 0.00 0.00 0.00 0.00 0.00 0.00 0.00 0.00 0.00 0.00 0.00
0.00 0.00 0.00 0.02 0.01 0.00 0.00 0.00 0.00 0.00 0.00 0.00 0.01 0.00 0.00 0.01 0.04 0.01 0.00 0.00 0.00 0.00 0.00 0.00 0.00 0.00 0.00 0.00 0.00 0.00 0.00 0.00 0.00 0.00 0.00 0.00 0.00 0.00 0.00 0.00 0.00 0.00 0.00 0.00
0.00 0.00 0.01 0.02 0.01 0.00 0.00 0.00 0.00 0.00 0.00 0.00 0.00 0.01 0.00 0.00 0.01 0.01 0.00 0.00 0.00 0.00 0.00 0.00 0.00 0.00 0.00 0.00 0.00 0.00 0.00 0.00 0.00 0.00 0.00 0.00 0.00 0.00 0.00 0.00 0.00 0.00 0.00 0.00
0.00 0.00 0.01 0.01 0.00 0.00 0.00 0.00 0.00 0.00 0.00 0.00 0.00 0.00 0.00 0.00 0.00 0.00 0.00 0.00 0.00 0.00 0.00 0.00 0.00 0.00 0.00 0.00 0.00 0.00 0.00 0.00 0.00 0.00 0.00 0.00 0.00 0.00 0.00 0.00 0.00 0.00 0.00 0.00
0.00 0.00 0.01 0.01 0.00 0.00 0.00 0.00 0.00 0.00 0.00 0.01 0.01 0.00 0.00 0.00 0.00 0.00 0.00 0.00 0.00 0.00 0.00 0.00 0.00 0.00 0.00 0.00 0.00 0.00 0.00 0.00 0.00 0.00 0.00 0.00 0.00 0.00 0.00 0.00 0.00 0.00 0.00 0.00
0.00 0.00 0.00 0.00 0.00 0.00 0.00 0.00 0.02 0.06 0.06 0.07 0.06 0.01 0.00 0.00 0.00 0.00 0.00 0.00 0.00 0.00 0.00 0.00 0.00 0.00 0.00 0.00 0.00 0.00 0.00 0.00 0.00 0.00 0.00 0.00 0.00 0.00 0.00 0.00 0.00 0.00 0.00 0.00
0.00 0.00 0.00 0.00 0.00 0.00 0.00 0.01 0.07 0.08 0.10 0.17 0.09 0.01 0.00 0.00 0.00 0.00 0.00 0.00 0.00 0.00 0.00 0.00 0.00 0.00 0.00 0.00 0.00 0.00 0.00 0.00 0.00 0.00 0.00 0.00 0.00 0.00 0.00 0.00 0.00 0.00 0.00 0.00
0.00 0.00 0.00 0.00 0.01 0.01 0.01 0.05 0.08 0.11 0.24 0.22 0.05 0.00 0.00 0.00 0.00 0.00 0.00 0.00 0.00 0.00 0.00 0.00 0.00 0.00 0.00 0.00 0.00 0.00 0.00 0.00 0.00 0.00 0.00 0.00 0.00 0.00 0.00 0.00 0.00 0.00 0.00 0.00
0.00 0.00 0.00 0.01 0.03 0.05 0.17 0.35 0.24 0.25 0.33 0.40 0.15 0.03 0.00 0.00 0.00 0.00 0.00 0.00 0.00 0.00 0.00 0.00 0.00 0.00 0.00 0.00 0.00 0.00 0.00 0.00 0.00 0.00 0.00 0.00 0.00 0.00 0.00 0.00 0.00 0.00 0.00 0.00
0.00 0.01 0.02 0.03 0.03 0.10 0.39 0.33 0.21 0.17 0.44 0.64 0.37 0.16 0.04 0.01 0.00 0.01 0.00 0.00 0.00 0.00 0.00 0.00 0.00 0.00 0.00 0.00 0.00 0.00 0.00 0.00 0.00 0.00 0.00 0.00 0.00 0.00 0.00 0.00 0.00 0.00 0.00 0.00
0.01 0.03 0.03 0.03 0.05 0.10 0.13 0.16 0.28 0.26 0.30 0.37 0.35 0.21 0.12 0.04 0.03 0.01 0.00 0.00 0.00 0.00 0.00 0.00 0.00 0.00 0.00 0.00 0.00 0.00 0.00 0.00 0.00 0.00 0.00 0.00 0.00 0.00 0.00 0.00 0.00 0.00 0.00 0.00
0.04 0.05 0.08 0.14 0.22 0.26 0.20 0.38 0.53 0.34 0.18 0.19 0.18 0.12 0.14 0.03 0.01 0.00 0.00 0.00 0.00 0.00 0.00 0.00 0.00 0.00 0.00 0.00 0.00 0.00 0.00 0.00 0.00 0.00 0.00 0.00 0.00 0.00 0.00 0.00 0.00 0.00 0.00 0.00
0.08 0.11 0.27 0.47 0.34 0.17 0.43 0.80 0.88 0.56 0.18 0.04 0.01 0.00 0.01 0.01 0.00 0.00 0.00 0.00 0.00 0.00 0.00 0.00 0.00 0.00 0.00 0.00 0.00 0.00 0.00 0.00 0.00 0.00 0.00 0.00 0.00 0.00 0.00 0.00 0.00 0.00 0.00 0.00
0.11 0.23 0.28 0.17 0.19 0.65 0.84 0.70 0.54 0.37 0.17 0.01 0.00 0.00 0.00 0.00 0.00 0.00 0.00 0.00 0.00 0.00 0.00 0.00 0.00 0.00 0.00 0.00 0.00 0.00 0.00 0.00 0.00 0.00 0.00 0.00 0.00 0.00 0.00 0.00 0.00 0.00 0.00 0.00
0.07 0.15 0.24 0.44 0.71 0.63 0.48 0.39 0.29 0.12 0.07 0.00 0.00 0.00 0.00 0.00 0.00 0.00 0.00 0.00 0.00 0.00 0.00 0.00 0.00 0.00 0.00 0.00 0.00 0.00 0.00 0.00 0.00 0.00 0.00 0.00 0.00 0.00 0.00 0.00 0.00 0.00 0.00 0.00
0.14 0.24 0.46 0.42 0.47 0.39 0.26 0.18 0.09 0.01 0.00 0.00 0.00 0.00 0.00 0.00 0.00 0.00 0.00 0.00 0.00 0.00 0.00 0.00 0.00 0.00 0.00 0.00 0.00 0.00 0.00 0.00 0.00 0.00 0.00 0.00 0.00 0.00 0.00 0.00 0.00 0.00 0.00 0.00
0.36 0.32 0.25 0.28 0.20 0.09 0.01 0.00 0.00 0.00 0.00 0.00 0.00 0.00 0.01 0.00 0.00 0.00 0.00 0.00 0.00 0.00 0.00 0.00 0.00 0.00 0.00 0.00 0.00 0.00 0.00 0.00 0.00 0.00 0.00 0.00 0.00 0.00 0.00 0.00 0.00 0.00 0.00 0.00
0.18 0.17 0.07 0.10 0.02 0.00 0.00 0.00 0.00 0.00 0.00 0.00 0.00 0.00 0.00 0.00 0.00 0.00 0.00 0.00 0.00 0.00 0.00 0.00 0.00 0.00 0.00 0.00 0.00 0.00 0.00 0.00 0.00 0.00 0.00 0.00 0.00 0.00 0.00 0.00 0.00 0.00 0.00 0.00
0.12 0.08 0.01 0.00 0.00 0.00 0.00 0.00 0.00 0.00 0.00 0.00 0.00 0.00 0.00 0.00 0.00 0.00 0.00 0.00 0.00 0.00 0.00 0.00 0.00 0.00 0.00 0.00 0.00 0.00 0.00 0.00 0.00 0.00 0.00 0.00 0.00 0.00 0.00 0.00 0.00 0.00 0.00 0.00
0.04 0.00 0.00 0.00 0.00 0.00 0.00 0.00 0.00 0.00 0.00 0.00 0.00 0.00 0.00 0.00 0.00 0.00 0.00 0.00 0.00 0.00 0.00 0.00 0.00 0.00 0.00 0.00 0.00 0.00 0.00 0.00 0.00 0.00 0.00 0.00 0.00 0.00 0.00 0.00 0.00 0.00 0.00 0.00
MSLP
1017.56 1017.80 1017.97 1018.19 1018.70 1019.24 1019.79 1020.02 1019.91 1018.70 1017.72 1017.97 1017.56 1016.80 1016.52 1016.00 1015.54 1015.34 1015.27 1015.66 1016.83 1018.00 1019.00 1020.57 1021.49 1022.36 1022.83 1023.43 1024.08 1025.78 1026.85 1028.45 1029.66 1029.40 1029.22 1029.42 1030.67 1032.94 1035.03 1038.03 1040.49 1040.71 1039.94 1034.95
1016.82 1017.25 1017.51 1017.79 1018.35 1018.86 1019.68 1020.11 1019.51 1018.41 1017.91 1017.44 1017.24 1017.10 1016.74 1016.14 1015.51 1015.40 1015.41 1015.75 1016.46 1017.69 1018.94 1020.59 1021.50 1022.31 1022.66 1023.19 1023.77 1024.70 1026.18 1028.23 1029.54 1029.71 1029.81 1029.95 1030.97 1032.61 1034.52 1037.01 1038.80 1040.03 1039.32 1035.15
1015.98 1016.41 1016.88 1017.23 1017.79 1018.38 1019.25 1020.02 1019.66 1018.94 1018.12 1017.26 1017.32 1016.77 1016.40 1016.08 1015.52 1015.39 1015.49 1015.88 1016.65 1017.88 1019.46 1020.38 1021.76 1022.50 1023.14 1023.40 1023.51 1024.21 1025.20 1027.13 1027.56 1027.89 1028.00 1028.74 1030.45 1031.85 1033.70 1035.17 1037.67 1038.23 1036.94 1034.72
1014.92 1015.45 1016.03 1016.54 1017.12 1017.70 1018.70 1019.48 1018.76 1018.03 1018.35 1017.91 1016.62 1016.22 1015.98 1016.42 1015.95 1015.55 1015.57 1016.09 1016.56 1017.51 1019.97 1021.01 1021.70 1022.44 1023.16 1023.63 1023.88 1024.45 1025.35 1026.84 1027.15 1027.27 1027.47 1028.07 1029.13 1030.53 1032.31 1033.57 1034.33 1034.96 1034.09 1033.52
1013.76 1014.39 1014.98 1015.61 1016.37 1017.18 1018.27 1019.25 1018.99 1018.28 1017.55 1016.68 1016.30 1015.56 1015.59 1015.21 1015.98 1015.99 1015.70 1016.13 1016.89 1017.48 1018.68 1019.48 1020.90 1021.64 1022.59 1023.13 1024.09 1024.66 1025.54 1026.78 1026.94 1027.28 1027.35 1027.84 1028.59 1029.35 1030.34 1031.34 1032.09 1032.52 1032.43 1031.02
1012.45 1013.17 1013.91 1014.65 1015.47 1016.54 1017.33 1018.33 1017.96 1017.34 1016.82 1016.03 1015.95 1015.29 1015.44 1014.85 1015.34 1015.84 1015.64 1016.06 1017.03 1017.96 1018.39 1019.22 1020.13 1020.85 1021.83 1022.25 1023.31 1024.75 1025.79 1027.07 1027.79 1027.80 1027.55 1027.80 1027.70 1026.82 1028.03 1028.83 1029.02 1029.44 1030.21 1028.05
1011.04 1011.95 1012.75 1013.57 1014.52 1015.32 1016.62 1017.52 1017.64 1017.56 1017.19 1016.17 1014.92 1015.01 1015.38 1015.01 1014.91 1015.58 1015.90 1016.27 1016.75 1018.69 1018.54 1019.38 1020.53 1021.74 1022.85 1023.27 1023.81 1024.19 1025.87 1027.15 1027.99 1028.39 1028.16 1027.79 1024.57 1024.32 1024.78 1025.72 1026.22 1026.82 1026.58 1026.40
1009.64 1010.74 1011.73 1012.68 1013.76 1014.86 1015.95 1016.49 1016.99 1017.43 1016.92 1015.91 1015.27 1014.98 1015.14 1015.36 1015.57 1016.00 1016.06 1016.34 1016.12 1017.59 1018.47 1020.99 1022.62 1023.96 1024.07 1024.51 1024.61 1024.98 1025.60 1027.04 1028.51 1028.55 1028.07 1025.88 1023.38 1023.24 1023.71 1024.51 1024.21 1024.00 1024.55 1024.86
1008.36 1009.61 1010.76 1011.79 1012.90 1014.22 1015.41 1015.97 1016.25 1016.64 1016.91 1014.87 1014.74 1014.57 1014.09 1014.63 1015.36 1016.64 1016.59 1016.83 1016.44 1017.54 1019.99 1022.06 1023.57 1024.31 1024.37 1025.14 1025.26 1025.65 1026.52 1027.09 1028.09 1028.96 1028.32 1026.05 1023.16 1021.91 1022.10 1023.22 1023.27 1021.71 1022.72 1023.58
1007.28 1008.53 1009.75 1010.95 1012.16 1013.40 1014.73 1015.63 1015.86 1016.35 1016.65 1015.23 1014.59 1013.56 1013.29 1013.81 1014.75 1016.08 1017.28 1017.89 1017.88 1018.12 1020.73 1023.01 1024.17 1024.54 1024.22 1024.86 1025.33 1026.12 1026.96 1027.84 1028.50 1028.99 1028.01 1024.99 1022.33 1021.74 1021.97 1022.88 1021.74 1021.07 1021.76 1022.75
1006.26 1007.53 1008.82 1010.06 1011.32 1012.74 1014.04 1015.22 1015.65 1016.18 1016.44 1015.33 1014.43 1013.78 1012.81 1012.60 1013.38 1014.68 1016.31 1017.61 1018.15 1019.38 1021.11 1022.74 1023.94 1024.17 1024.30 1024.59 1024.56 1024.92 1025.90 1027.23 1028.05 1028.60 1027.69 1024.27 1021.51 1021.88 1021.76 1020.82 1020.61 1020.69 1021.34 1022.23
1005.24 1006.61 1007.98 1009.36 1010.71 1012.01 1013.58 1015.11 1015.41 1016.01 1016.36 1015.22 1014.47 1013.92 1013.31 1011.40 1010.99 1012.96 1015.21 1015.74 1016.69 1018.03 1020.24 1022.12 1022.91 1023.84 1024.17 1023.97 1024.43 1024.05 1024.90 1024.11 1024.63 1025.04 1023.60 1021.65 1020.91 1020.35 1019.74 1019.86 1020.15 1020.57 1021.11 1021.84
1004.25 1005.81 1007.16 1008.37 1009.58 1011.21 1012.80 1014.38 1015.47 1016.35 1016.78 1015.69 1015.05 1013.21 1011.36 1011.12 1010.51 1011.24 1013.07 1015.36 1015.80 1017.20 1017.64 1020.18 1021.44 1022.23 1022.60 1023.07 1023.06 1023.19 1023.05 1022.79 1023.03 1023.05 1020.79 1020.77 1020.47 1020.06 1019.67 1019.67 1019.78 1020.18 1020.69 1021.56
1003.32 1004.81 1006.18 1007.69 1009.47 1011.20 1012.62 1013.73 1014.85 1015.26 1016.06 1015.95 1013.73 1012.02 1011.76 1010.66 1010.56 1011.16 1011.81 1013.04 1015.09 1016.24 1017.39 1019.26 1020.56 1021.12 1020.99 1021.24 1021.13 1021.60 1021.24 1021.45 1021.53 1021.39 1020.17 1019.98 1019.27 1019.11 1019.09 1019.41 1019.57 1020.16 1020.86 1021.43
1002.25 1003.97 1005.67 1007.24 1009.11 1011.19 1013.10 1014.31 1014.82 1014.58 1014.57 1014.18 1013.51 1012.05 1010.86 1010.08 1009.91 1011.19 1012.10 1013.17 1015.14 1016.60 1018.03 1019.12 1020.11 1020.00 1020.47 1020.70 1020.80 1020.24 1019.33 1019.11 1019.55 1018.87 1017.93 1017.80 1017.61 1017.55 1018.17 1018.95 1019.29 1019.88 1020.62 1021.67
1001.49 1003.41 1005.16 1007.28 1009.34 1011.26 1012.76 1014.46 1015.01 1014.65 1014.69 1014.95 1013.18 1011.72 1010.54 1010.43 1010.99 1012.22 1013.04 1013.47 1015.04 1016.35 1017.39 1018.77 1019.02 1018.61 1018.94 1019.96 1019.69 1017.23 1016.72 1016.49 1016.13 1016.38 1016.60 1016.69 1016.50 1016.62 1017.12 1018.07 1018.72 1019.39 1020.08 1020.62
1001.17 1003.07 1005.10 1007.04 1008.63 1009.65 1010.39 1011.22 1011.87 1013.93 1016.06 1015.47 1014.75 1011.86 1011.02 1010.64 1011.74 1013.16 1014.65 1015.04 1015.56 1016.15 1017.75 1018.54 1018.50 1018.72 1018.65 1018.98 1018.04 1015.97 1015.43 1015.31 1015.48 1015.48 1015.96 1016.45 1016.51 1016.50 1016.76 1017.28 1017.92 1018.69 1019.44 1020.10
1000.93 1003.07 1005.12 1007.27 1009.09 1010.55 1011.05 1010.51 1011.71 1013.00 1015.82 1014.51 1013.50 1011.46 1011.31 1011.96 1013.16 1014.68 1015.16 1015.65 1016.06 1017.23 1018.07 1018.24 1018.43 1018.94 1018.80 1017.85 1015.46 1014.72 1014.43 1014.49 1014.81 1014.99 1014.86 1014.97 1015.12 1015.86 1016.41 1016.89 1017.81 1018.83 1019.63 1020.30
1001.28 1003.63 1006.08 1008.04 1008.74 1008.77 1009.53 1011.23 1012.31 1012.71 1013.17 1012.98 1012.06 1010.74 1011.44 1012.09 1013.23 1014.26 1015.53 1016.13 1017.58 1018.16 1018.07 1018.12 1018.26 1018.39 1017.22 1014.74 1014.08 1013.79 1013.78 1013.96 1013.82 1014.30 1014.83 1015.03 1015.22 1015.61 1016.19 1016.88 1017.67 1018.31 1019.18 1020.05
1001.64 1004.03 1005.63 1006.79 1007.23 1008.03 1010.40 1012.67 1012.39 1010.61 1009.80 1010.95 1009.52 1008.92 1009.85 1010.99 1013.27 1014.81 1016.12 1017.10 1017.90 1018.27 1017.93 1017.87 1017.72 1016.73 1014.55 1013.26 1012.90 1012.74 1012.97 1013.25 1013.58 1014.20 1014.82 1015.00 1015.31 1015.54 1015.91 1016.42 1016.89 1017.45 1018.38 1019.48
1000.86 1002.75 1004.60 1005.79 1006.92 1009.36 1010.95 1010.21 1009.01 1008.13 1007.74 1007.42 1007.25 1007.41 1007.23 1010.56 1011.73 1014.25 1015.44 1016.62 1017.53 1018.15 1017.56 1017.67 1017.17 1015.56 1013.17 1012.06 1011.43 1011.43 1011.99 1012.51 1012.89 1013.02 1013.23 1013.68 1013.99 1014.77 1015.61 1016.26 1016.71 1017.37 1018.20 1019.20
1000.17 1001.55 1003.50 1005.27 1007.66 1007.85 1007.91 1007.30 1006.44 1005.77 1005.07 1004.86 1005.57 1006.85 1008.08 1010.39 1011.28 1013.39 1015.41 1016.34 1017.43 1017.16 1016.97 1017.47 1016.13 1013.08 1011.19 1010.95 1010.88 1010.85 1011.21 1011.73 1012.28 1012.50 1012.82 1013.17 1013.68 1014.13 1014.93 1015.61 1016.47 1017.24 1017.91 1018.99
1000.21 1001.82 1003.90 1005.36 1005.87 1005.86 1004.62 1003.67 1003.67 1003.20 1003.05 1003.40 1004.36 1007.01 1008.79 1010.33 1011.78 1014.00 1014.68 1015.64 1016.68 1016.45 1017.14 1016.38 1013.47 1011.31 1010.74 1010.47 1010.47 1010.60 1010.75 1011.14 1011.63 1012.12 1012.45 1012.88 1013.30 1013.91 1014.58 1015.40 1016.08 1016.88 1017.93 1018.83
1001.31 1001.98 1003.40 1003.99 1003.67 1002.58 1001.23 1000.73 1000.24 1000.39 1001.18 1002.31 1003.87 1006.86 1009.34 1011.46 1012.53 1013.62 1014.79 1015.81 1016.07 1016.68 1016.75 1014.48 1011.49 1010.25 1010.20 1010.26 1010.29 1010.35 1010.66 1010.96 1011.36 1011.85 1012.23 1012.78 1013.34 1013.90 1014.42 1015.06 1015.89 1016.85 1017.93 1018.90
998.64 999.45 1000.75 1000.88 1000.22 1000.34 1000.09 999.67 999.71 1000.30 1000.56 1001.77 1005.41 1007.64 1009.14 1011.55 1012.91 1013.53 1014.77 1015.77 1015.38 1014.65 1013.17 1011.56 1009.88 1009.50 1009.60 1009.83 1010.01 1010.31 1010.52 1010.91 1011.39 1011.70 1012.19 1012.88 1013.56 1014.12 1014.69 1015.39 1016.02 1016.69 1017.76 1018.82
998.93 999.05 999.00 999.32 999.83 999.83 999.34 999.12 999.28 999.90 1001.16 1003.10 1004.57 1007.81 1009.94 1011.13 1011.87 1012.70 1012.64 1012.96 1012.72 1011.34 1010.19 1009.28 1009.01 1009.12 1009.20 1009.50 1009.91 1010.29 1010.51 1010.87 1011.24 1011.68 1012.23 1013.00 1013.82 1014.29 1014.94 1015.95 1016.57 1017.24 1017.75 1018.73
999.98 1000.02 999.63 999.84 999.58 999.23 998.33 997.88 998.68 1000.18 1001.05 1003.65 1005.60 1007.17 1008.95 1009.98 1010.84 1011.43 1011.28 1010.85 1009.06 1008.42 1008.69 1008.53 1008.44 1008.50 1008.86 1009.43 1010.07 1010.42 1010.55 1010.89 1011.31 1011.85 1012.50 1013.18 1014.02 1014.72 1015.49 1016.54 1017.06 1017.60 1018.03 1018.41
Thickness
5387 5392 5399 5406 5411 5417 5424 5435 5445 5477 5492 5503 5516 5535 5551 5565 5574 5587 5597 5603 5600 5597 5596 5587 5586 5583 5588 5584 5580 5576 5566 5535 5518 5553 5550 5552 5541 5505 5485 5466 5442 5442 5408 5477
5387 5391 5397 5402 5407 5413 5415 5421 5443 5469 5477 5491 5509 5527 5540 5557 5568 5578 5587 5595 5601 5597 5590 5578 5586 5581 5583 5580 5581 5573 5563 5527 5504 5533 5539 5545 5545 5518 5497 5445 5421 5442 5444 5483
5389 5393 5397 5402 5407 5411 5414 5418 5431 5451 5467 5498 5511 5526 5536 5547 5563 5575 5583 5588 5592 5587 5581 5579 5574 5574 5576 5576 5582 5580 5570 5542 5535 5535 5555 5535 5521 5521 5506 5499 5441 5435 5449 5471
5393 5396 5399 5403 5407 5412 5413 5414 5432 5458 5457 5481 5513 5527 5538 5540 5547 5567 5579 5581 5587 5584 5562 5573 5572 5571 5569 5574 5575 5572 5567 5541 5554 5557 5562 5554 5543 5529 5514 5489 5494 5496 5485 5484
5396 5399 5402 5406 5410 5411 5412 5415 5436 5447 5471 5497 5507 5524 5534 5550 5549 5558 5570 5575 5579 5585 5573 5583 5565 5569 5568 5572 5569 5568 5560 5545 5560 5560 5560 5554 5553 5539 5526 5525 5520 5499 5502 5504
5400 5401 5404 5409 5413 5413 5416 5418 5434 5456 5471 5497 5509 5524 5534 5551 5555 5555 5570 5572 5572 5580 5585 5580 5571 5574 5571 5575 5566 5556 5554 5537 5531 5549 5553 5552 5527 5539 5538 5531 5530 5534 5523 5534
5403 5404 5407 5411 5416 5419 5421 5422 5432 5445 5457 5494 5523 5525 5531 5542 5552 5552 5561 5569 5575 5568 5577 5575 5572 5566 5560 5562 5558 5561 5542 5538 5525 5525 5536 5496 5568 5572 5567 5563 5558 5543 5549 5547
5406 5406 5408 5413 5416 5418 5421 5426 5433 5440 5450 5492 5508 5517 5525 5533 5541 5546 5553 5566 5578 5574 5574 5548 5547 5535 5553 5554 5557 5555 5552 5529 5517 5518 5531 5556 5583 5574 5562 5556 5568 5570 5564 5560
5409 5408 5410 5414 5418 5418 5420 5427 5435 5442 5448 5487 5512 5520 5534 5533 5536 5534 5543 5553 5571 5568 5544 5538 5538 5533 5547 5539 5548 5548 5536 5531 5512 5505 5529 5537 5567 5585 5580 5574 5544 5583 5575 5567
5411 5411 5413 5415 5419 5421 5422 5426 5437 5442 5448 5473 5494 5519 5534 5539 5537 5538 5527 5540 5556 5558 5529 5518 5521 5524 5544 5534 5540 5537 5525 5517 5496 5455 5478 5536 5568 5580 5578 5558 5569 5585 5572 5564
5414 5414 5415 5418 5421 5422 5424 5428 5435 5441 5446 5471 5490 5511 5531 5537 5543 5538 5532 5533 5535 5530 5526 5523 5516 5520 5529 5533 5547 5543 5531 5513 5492 5491 5490 5525 5572 5572 5569 5572 5580 5584 5574 5564
5416 5416 5417 5418 5420 5423 5423 5421 5432 5435 5443 5465 5478 5496 5518 5549 5566 5553 5532 5547 5549 5542 5527 5513 5524 5522 5515 5536 5530 5548 5543 5541 5533 5537 5543 5565 5571 5580 5582 5579 5580 5580 5572 5563
5418 5416 5417 5422 5427 5425 5424 5422 5425 5428 5434 5452 5465 5500 5532 5542 5555 5561 5548 5546 5559 5557 5560 5539 5536 5558 5532 5530 5535 5548 5557 5554 5551 5556 5576 5568 5567 5573 5582 5577 5582 5577 5570 5559
5418 5418 5420 5422 5419 5417 5419 5425 5427 5433 5437 5441 5473 5504 5515 5542 5550 5553 5563 5563 5557 5558 5557 5545 5538 5550 5547 5543 5562 5549 5555 5563 5554 5556 5569 5571 5574 5577 5580 5578 5579 5573 5563 5557
5419 5419 5417 5417 5413 5408 5405 5409 5416 5432 5448 5456 5472 5505 5524 5542 5556 5554 5557 5560 5552 5546 5547 5538 5539 5539 5546 5541 5547 5553 5567 5565 5561 5568 5581 5589 5587 5586 5581 5576 5575 5570 5563 5552
5415 5414 5413 5404 5398 5394 5395 5392 5402 5424 5433 5438 5469 5493 5520 5532 5539 5542 5546 5553 5543 5539 5540 5528 5534 5550 5551 5547 5552 5586 5588 5587 5597 5593 5589 5587 5593 5589 5587 5581 5575 5569 5564 5560
5405 5407 5404 5399 5398 5400 5406 5416 5430 5426 5415 5432 5446 5490 5510 5526 5527 5523 5526 5530 5532 5536 5521 5532 5542 5547 5547 5545 5558 5595 5596 5600 5595 5597 5590 5588 5588 5588 5582 5583 5579 5572 5565 5560
5399 5402 5400 5395 5384 5385 5389 5409 5419 5428 5416 5439 5448 5479 5502 5508 5506 5510 5513 5517 5520 5516 5519 5527 5538 5534 5535 5555 5584 5593 5603 5599 5595 5593 5597 5596 5594 5588 5584 5580 5571 5565 5558 5552
5391 5391 5385 5377 5384 5398 5407 5408 5418 5428 5437 5446 5461 5487 5491 5502 5500 5505 5506 5508 5508 5505 5522 5530 5535 5530 5549 5588 5595 5596 5598 5599 5602 5593 5590 5592 5589 5584 5580 5574 5568 5566 5558 5550
5382 5379 5376 5377 5395 5403 5398 5396 5410 5440 5455 5458 5481 5500 5509 5518 5494 5488 5498 5488 5494 5513 5522 5522 5527 5542 5574 5591 5595 5600 5601 5599 5600 5589 5583 5580 5582 5578 5574 5573 5570 5570 5562 5551
5377 5373 5379 5396 5400 5394 5392 5409 5428 5447 5468 5483 5496 5522 5535 5509 5515 5490 5494 5490 5496 5509 5526 5529 5531 5546 5576 5594 5609 5613 5604 5601 5598 5600 5597 5590 5589 5580 5571 5569 5566 5562 5555 5549
5387 5396 5399 5398 5393 5397 5413 5431 5442 5465 5488 5500 5521 5525 5530 5510 5513 5510 5499 5510 5501 5522 5514 5515 5533 5569 5591 5598 5605 5606 5604 5603 5599 5596 5594 5589 5585 5581 5574 5571 5563 5557 5553 5542
5403 5408 5404 5403 5406 5423 5448 5460 5471 5492 5498 5530 5535 5518 5507 5508 5505 5492 5505 5513 5503 5512 5504 5524 5557 5580 5593 5600 5604 5605 5603 5601 5598 5595 5592 5586 5582 5576 5571 5566 5562 5554 5546 5538
5406 5408 5414 5427 5446 5461 5482 5501 5518 5521 5542 5547 5543 5515 5505 5490 5499 5490 5511 5500 5503 5500 5494 5548 5569 5582 5592 5595 5599 5603 5600 5597 5596 5593 5589 5583 5575 5570 5567 5563 5555 5548 5540 5530
5436 5441 5455 5457 5477 5479 5492 5511 5529 5540 5553 5549 5515 5500 5500 5488 5494 5494 5490 5495 5499 5518 5547 5557 5575 5590 5593 5596 5598 5598 5597 5590 5587 5588 5584 5573 5564 5561 5558 5553 5548 5546 5535 5526
5449 5460 5472 5475 5480 5486 5507 5532 5538 5546 5542 5521 5518 5498 5498 5502 5498 5501 5507 5520 5521 5554 5560 5571 5582 5591 5593 5594 5592 5591 5591 5588 5586 5582 5578 5567 5556 5555 5553 5542 5539 5532 5530 5521
5455 5456 5467 5476 5495 5513 5535 5549 5549 5544 5545 5516 5505 5520 5523 5492 5497 5504 5510 5529 5556 5567 5569 5574 5587 5591 5591 5588 5585 5582 5585 5584 5579 5575 5569 5563 5553 5548 5543 5535 5528 5523 5520 5516